Time,TemperatureF,DewpointF,PressureIn,WindDirection,WindDirectionDegrees,WindSpeedMPH,WindSpeedGustMPH,Humidity,HourlyPrecipIn,Conditions,Clouds,dailyrainin,SoftwareType,DateUTC
2013-09-01 00:01:00,49.3,42.1,30.12,West,270,0.0,-999.0,76,-99.99,,,0.00,Acu-Link.com,2013-09-01 06:01:00,
2013-09-01 00:16:00,49.1,41.9,30.12,West,270,0.0,-999.0,76,-99.99,,,0.00,Acu-Link.com,2013-09-01 06:16:00,
2013-09-01 00:32:00,49.1,41.9,30.12,West,270,2.2,-999.0,76,-99.99,,,0.00,Acu-Link.com,2013-09-01 06:32:00,
2013-09-01 00:47:00,49.1,41.5,30.12,West,270,1.7,-999.0,75,-99.99,,,0.00,Acu-Link.com,2013-09-01 06:47:00,
2013-09-01 01:02:00,48.9,41.3,30.13,West,270,0.0,-999.0,75,-99.99,,,0.00,Acu-Link.com,2013-09-01 07:02:00,
2013-09-01 01:17:00,48.9,41.3,30.12,NE,45,0.0,-999.0,75,-99.99,,,0.00,Acu-Link.com,2013-09-01 07:17:00,
2013-09-01 01:32:00,48.9,41.3,30.12,NE,45,0.0,-999.0,75,-99.99,,,0.00,Acu-Link.com,2013-09-01 07:32:00,
2013-09-01 01:47:00,49.3,41.7,30.12,NE,45,0.0,-999.0,75,-99.99,,,0.00,Acu-Link.com,2013-09-01 07:47:00,
2013-09-01 02:02:00,49.3,42.1,30.13,NE,45,2.2,-999.0,76,-99.99,,,0.00,Acu-Link.com,2013-09-01 08:02:00,
2013-09-01 02:18:00,49.3,42.1,30.12,NE,45,3.2,-999.0,76,-99.99,,,0.00,Acu-Link.com,2013-09-01 08:18:00,
2013-09-01 02:33:00,49.1,41.5,30.12,NE,45,0.0,-999.0,75,-99.99,,,0.00,Acu-Link.com,2013-09-01 08:33:00,
2013-09-01 02:48:00,48.4,41.2,30.13,NE,45,0.0,-999.0,76,-99.99,,,0.00,Acu-Link.com,2013-09-01 08:48:00,
2013-09-01 03:03:00,47.7,40.8,30.12,NE,45,2.7,-999.0,77,-99.99,,,0.00,Acu-Link.com,2013-09-01 09:03:00,
2013-09-01 03:18:00,47.7,40.8,30.12,NE,45,0.0,-999.0,77,-99.99,,,0.00,Acu-Link.com,2013-09-01 09:18:00,
2013-09-01 03:33:00,47.1,40.3,30.11,NE,45,1.7,-999.0,77,-99.99,,,0.00,Acu-Link.com,2013-09-01 09:33:00,
2013-09-01 03:48:00,46.4,39.9,30.11,NE,45,0.0,-999.0,78,-99.99,,,0.00,Acu-Link.com,2013-09-01 09:48:00,
2013-09-01 04:04:00,45.7,39.9,30.11,NE,45,0.0,-999.0,80,-99.99,,,0.00,Acu-Link.com,2013-09-01 10:04:00,
2013-09-01 04:19:00,45.5,40.0,30.11,NE,45,2.2,-999.0,81,-99.99,,,0.00,Acu-Link.com,2013-09-01 10:19:00,
2013-09-01 04:34:00,45.3,39.8,30.10,NE,45,1.7,-999.0,81,-99.99,,,0.00,Acu-Link.com,2013-09-01 10:34:00,
2013-09-01 04:49:00,45.3,40.1,30.10,NE,45,1.1,-999.0,82,-99.99,,,0.00,Acu-Link.com,2013-09-01 10:49:00,
2013-09-01 05:04:00,45.3,40.1,30.10,NE,45,0.0,-999.0,82,-99.99,,,0.00,Acu-Link.com,2013-09-01 11:04:00,
2013-09-01 05:20:00,45.5,40.3,30.10,NE,45,0.0,-999.0,82,-99.99,,,0.00,Acu-Link.com,2013-09-01 11:20:00,
2013-09-01 05:35:00,45.9,40.7,30.10,NE,45,0.0,-999.0,82,-99.99,,,0.00,Acu-Link.com,2013-09-01 11:35:00,
2013-09-01 05:50:00,46.2,41.0,30.10,NE,45,0.0,-999.0,82,-99.99,,,0.00,Acu-Link.com,2013-09-01 11:50:00,
2013-09-01 06:05:00,46.8,41.3,30.10,NE,45,1.1,-999.0,81,-99.99,,,0.00,Acu-Link.com,2013-09-01 12:05:00,
2013-09-01 06:20:00,46.8,41.3,30.10,NE,45,1.7,-999.0,81,-99.99,,,0.00,Acu-Link.com,2013-09-01 12:20:00,
2013-09-01 06:35:00,46.9,41.4,30.11,NE,45,1.7,-999.0,81,-99.99,,,0.00,Acu-Link.com,2013-09-01 12:35:00,
2013-09-01 06:50:00,47.5,41.6,30.11,NE,45,0.0,-999.0,80,-99.99,,,0.00,Acu-Link.com,2013-09-01 12:50:00,
2013-09-01 07:06:00,48.4,41.9,30.12,NE,45,1.1,-999.0,78,-99.99,,,0.00,Acu-Link.com,2013-09-01 13:06:00,
2013-09-01 07:21:00,49.6,42.0,30.12,West,270,2.7,-999.0,75,-99.99,,,0.00,Acu-Link.com,2013-09-01 13:21:00,
2013-09-01 07:36:00,52.5,42.6,30.12,West,270,1.7,-999.0,69,-99.99,,,0.00,Acu-Link.com,2013-09-01 13:36:00,
2013-09-01 07:51:00,55.8,43.8,30.13,SSW,202,0.0,-999.0,64,-99.99,,,0.00,Acu-Link.com,2013-09-01 13:51:00,
2013-09-01 08:06:00,59.5,43.8,30.12,SSW,202,2.2,-999.0,56,-99.99,,,0.00,Acu-Link.com,2013-09-01 14:06:00,
2013-09-01 08:21:00,59.2,44.0,30.13,SSW,202,2.7,-999.0,57,-99.99,,,0.00,Acu-Link.com,2013-09-01 14:21:00,
2013-09-01 08:36:00,60.6,44.3,30.13,West,270,3.7,-999.0,55,-99.99,,,0.00,Acu-Link.com,2013-09-01 14:36:00,
2013-09-01 08:51:00,61.0,45.2,30.13,SE,135,1.7,-999.0,56,-99.99,,,0.00,Acu-Link.com,2013-09-01 14:51:00,
2013-09-01 09:06:00,62.6,43.7,30.13,WSW,247,2.2,-999.0,50,-99.99,,,0.00,Acu-Link.com,2013-09-01 15:06:00,
2013-09-01 09:22:00,64.0,43.4,30.13,South,180,4.7,-999.0,47,-99.99,,,0.00,Acu-Link.com,2013-09-01 15:22:00,
2013-09-01 09:37:00,64.6,43.3,30.13,West,270,3.7,-999.0,46,-99.99,,,0.00,Acu-Link.com,2013-09-01 15:37:00,
2013-09-01 09:52:00,65.7,43.8,30.13,SW,225,4.2,-999.0,45,-99.99,,,0.00,Acu-Link.com,2013-09-01 15:52:00,
2013-09-01 10:07:00,66.6,44.6,30.13,South,180,2.2,-999.0,45,-99.99,,,0.00,Acu-Link.com,2013-09-01 16:07:00,
2013-09-01 10:22:00,68.5,43.9,30.13,SSE,157,1.7,-999.0,41,-99.99,,,0.00,Acu-Link.com,2013-09-01 16:22:00,
2013-09-01 10:37:00,67.3,42.8,30.13,SSE,157,1.7,-999.0,41,-99.99,,,0.00,Acu-Link.com,2013-09-01 16:37:00,
2013-09-01 10:52:00,68.5,44.5,30.13,WSW,247,3.2,-999.0,42,-99.99,,,0.00,Acu-Link.com,2013-09-01 16:52:00,
2013-09-01 11:07:00,70.5,41.5,30.13,East,90,4.2,-999.0,35,-99.99,,,0.00,Acu-Link.com,2013-09-01 17:07:00,
2013-09-01 11:22:00,74.1,40.7,30.12,East,90,1.7,-999.0,30,-99.99,,,0.00,Acu-Link.com,2013-09-01 17:22:00,
2013-09-01 11:38:00,77.4,40.8,30.12,ESE,112,2.7,-999.0,27,-99.99,,,0.00,Acu-Link.com,2013-09-01 17:38:00,
2013-09-01 11:53:00,72.1,38.9,30.12,East,90,1.7,-999.0,30,-99.99,,,0.00,Acu-Link.com,2013-09-01 17:53:00,
2013-09-01 12:08:00,75.0,39.7,30.12,ENE,67,2.7,-999.0,28,-99.99,,,0.00,Acu-Link.com,2013-09-01 18:08:00,
2013-09-01 12:23:00,72.9,39.6,30.12,WSW,247,3.2,-999.0,30,-99.99,,,0.00,Acu-Link.com,2013-09-01 18:23:00,
2013-09-01 12:38:00,73.8,37.7,30.11,WNW,292,1.7,-999.0,27,-99.99,,,0.00,Acu-Link.com,2013-09-01 18:38:00,
2013-09-01 12:53:00,71.8,30.9,30.12,ESE,112,3.2,-999.0,22,-99.99,,,0.00,Acu-Link.com,2013-09-01 18:53:00,
2013-09-01 13:08:00,73.8,34.7,30.10,ESE,112,5.8,-999.0,24,-99.99,,,0.00,Acu-Link.com,2013-09-01 19:08:00,
2013-09-01 13:23:00,73.2,43.1,30.11,ESE,112,3.7,-999.0,34,-99.99,,,0.00,Acu-Link.com,2013-09-01 19:23:00,
2013-09-01 13:38:00,69.3,43.9,30.10,ENE,67,4.7,-999.0,40,-99.99,,,0.00,Acu-Link.com,2013-09-01 19:38:00,
2013-09-01 13:54:00,68.5,43.9,30.10,East,90,2.2,-999.0,41,-99.99,,,0.00,Acu-Link.com,2013-09-01 19:54:00,
2013-09-01 14:09:00,68.0,42.8,30.10,East,90,2.7,-999.0,40,-99.99,,,0.00,Acu-Link.com,2013-09-01 20:09:00,
2013-09-01 14:24:00,67.1,43.9,30.10,East,90,6.3,-999.0,43,-99.99,,,0.00,Acu-Link.com,2013-09-01 20:24:00,
2013-09-01 14:39:00,67.1,43.2,30.09,East,90,3.7,-999.0,42,-99.99,,,0.00,Acu-Link.com,2013-09-01 20:39:00,
2013-09-01 14:54:00,68.0,43.4,30.09,East,90,4.7,-999.0,41,-99.99,,,0.00,Acu-Link.com,2013-09-01 20:54:00,
2013-09-01 15:09:00,71.2,44.3,30.09,ESE,112,2.7,-999.0,38,-99.99,,,0.00,Acu-Link.com,2013-09-01 21:09:00,
2013-09-01 15:24:00,70.5,43.7,30.08,East,90,3.2,-999.0,38,-99.99,,,0.00,Acu-Link.com,2013-09-01 21:24:00,
2013-09-01 15:39:00,69.3,45.2,30.08,East,90,3.7,-999.0,42,-99.99,,,0.00,Acu-Link.com,2013-09-01 21:39:00,
2013-09-01 15:54:00,66.6,45.2,30.08,East,90,3.2,-999.0,46,-99.99,,,0.00,Acu-Link.com,2013-09-01 21:54:00,
2013-09-01 16:10:00,66.2,44.8,30.09,East,90,2.7,-999.0,46,-99.99,,,0.00,Acu-Link.com,2013-09-01 22:10:00,
2013-09-01 16:25:00,68.2,44.8,30.09,ESE,112,5.8,-999.0,43,-99.99,,,0.00,Acu-Link.com,2013-09-01 22:25:00,
2013-09-01 16:40:00,66.9,44.3,30.08,ESE,112,3.7,-999.0,44,-99.99,,,0.00,Acu-Link.com,2013-09-01 22:40:00,
2013-09-01 16:55:00,66.6,44.6,30.09,ESE,112,1.7,-999.0,45,-99.99,,,0.00,Acu-Link.com,2013-09-01 22:55:00,
2013-09-01 17:10:00,67.3,44.6,30.08,ESE,112,5.8,-999.0,44,-99.99,,,0.00,Acu-Link.com,2013-09-01 23:10:00,
2013-09-01 17:25:00,67.6,44.3,30.09,ESE,112,3.7,-999.0,43,-99.99,,,0.00,Acu-Link.com,2013-09-01 23:25:00,
2013-09-01 17:40:00,67.6,43.1,30.08,ESE,112,2.7,-999.0,41,-99.99,,,0.00,Acu-Link.com,2013-09-01 23:40:00,
2013-09-01 17:55:00,65.5,46.9,30.08,ESE,112,2.7,-999.0,51,-99.99,,,0.00,Acu-Link.com,2013-09-01 23:55:00,
2013-09-01 18:10:00,64.4,46.4,30.08,ESE,112,1.1,-999.0,52,-99.99,,,0.00,Acu-Link.com,2013-09-02 00:10:00,
2013-09-01 18:26:00,62.1,45.3,30.08,ESE,112,2.7,-999.0,54,-99.99,,,0.00,Acu-Link.com,2013-09-02 00:26:00,
2013-09-01 18:41:00,60.4,45.6,30.08,ESE,112,1.1,-999.0,58,-99.99,,,0.00,Acu-Link.com,2013-09-02 00:41:00,
2013-09-01 18:56:00,59.4,45.1,30.07,ESE,112,2.2,-999.0,59,-99.99,,,0.00,Acu-Link.com,2013-09-02 00:56:00,
2013-09-01 19:11:00,59.2,44.9,30.08,ESE,112,0.0,-999.0,59,-99.99,,,0.00,Acu-Link.com,2013-09-02 01:11:00,
2013-09-01 19:26:00,58.3,44.9,30.08,ESE,112,0.0,-999.0,61,-99.99,,,0.00,Acu-Link.com,2013-09-02 01:26:00,
2013-09-01 19:41:00,56.8,44.8,30.08,ESE,112,1.7,-999.0,64,-99.99,,,0.00,Acu-Link.com,2013-09-02 01:41:00,
2013-09-01 19:56:00,55.9,44.7,30.08,ESE,112,1.1,-999.0,66,-99.99,,,0.00,Acu-Link.com,2013-09-02 01:56:00,
2013-09-01 20:11:00,54.9,44.9,30.08,ESE,112,1.1,-999.0,69,-99.99,,,0.00,Acu-Link.com,2013-09-02 02:11:00,
2013-09-01 20:26:00,54.0,44.4,30.09,ESE,112,2.7,-999.0,70,-99.99,,,0.00,Acu-Link.com,2013-09-02 02:26:00,
2013-09-01 20:42:00,53.8,44.2,30.09,ESE,112,2.2,-999.0,70,-99.99,,,0.00,Acu-Link.com,2013-09-02 02:42:00,
2013-09-01 20:57:00,54.0,44.1,30.10,ESE,112,2.2,-999.0,69,-99.99,,,0.00,Acu-Link.com,2013-09-02 02:57:00,
2013-09-01 21:12:00,54.5,43.8,30.09,ESE,112,2.2,-999.0,67,-99.99,,,0.00,Acu-Link.com,2013-09-02 03:12:00,
2013-09-01 21:28:00,53.2,42.5,30.10,ESE,112,1.7,-999.0,67,-99.99,,,0.00,Acu-Link.com,2013-09-02 03:28:00,
2013-09-01 21:43:00,52.9,42.2,30.10,ESE,112,1.1,-999.0,67,-99.99,,,0.00,Acu-Link.com,2013-09-02 03:43:00,
2013-09-01 21:58:00,53.2,42.1,30.11,ESE,112,0.0,-999.0,66,-99.99,,,0.00,Acu-Link.com,2013-09-02 03:58:00,
2013-09-01 22:13:00,53.2,42.1,30.11,ESE,112,0.0,-999.0,66,-99.99,,,0.00,Acu-Link.com,2013-09-02 04:13:00,
2013-09-01 22:29:00,53.2,42.5,30.11,ESE,112,2.7,-999.0,67,-99.99,,,0.00,Acu-Link.com,2013-09-02 04:29:00,
2013-09-01 22:44:00,53.2,42.1,30.11,ESE,112,1.1,-999.0,66,-99.99,,,0.00,Acu-Link.com,2013-09-02 04:44:00,
2013-09-01 22:59:00,53.1,41.2,30.11,ESE,112,0.0,-999.0,64,-99.99,,,0.00,Acu-Link.com,2013-09-02 04:59:00,
2013-09-01 23:14:00,51.4,41.2,30.12,ESE,112,3.2,-999.0,68,-99.99,,,0.00,Acu-Link.com,2013-09-02 05:14:00,
2013-09-01 23:29:00,52.2,41.2,30.11,ESE,112,1.7,-999.0,66,-99.99,,,0.00,Acu-Link.com,2013-09-02 05:29:00,
2013-09-01 23:44:00,52.5,41.1,30.12,ESE,112,2.2,-999.0,65,-99.99,,,0.00,Acu-Link.com,2013-09-02 05:44:00,
2013-09-01 23:59:00,53.2,40.9,30.12,ESE,112,0.0,-999.0,63,-99.99,,,0.00,Acu-Link.com,2013-09-02 05:59:00,